DG7AA-13 Weather Reports


Display with metric or nautical units.
time (UTC)temp
F
wind
direction
speed
MPH
gust
MPH
rain 1hr
in
rain 24hr
in
rain mn
in
humidity
%
barometer
mb
20260503000523 51 0.0 0.0 0.00 0.00 0.00 84
20260502235534 52 0.0 0.0 0.00 0.00 0.00 82
20260502234523 53 359 0.0 2.0 0.00 0.00 0.00 80
20260502233525 52 340 2.0 4.0 0.00 0.00 0.00 84
20260502232523 51 0.0 0.0 0.00 0.00 0.00 88
20260502231531 51 0.0 0.0 0.00 0.00 0.00 88
20260502230523 51 0.0 0.0 0.00 0.00 0.00 86
20260502225524 51 0.0 0.0 0.00 0.00 0.00 85
20260502224523 53 346 0.0 2.0 0.00 0.00 0.00 83
20260502223531 54 0.0 0.0 0.00 0.00 0.00 82
20260502222523 54 0.0 0.0 0.00 0.00 0.00 81
20260502221531 55 0.0 0.0 0.00 0.00 0.00 78
20260502220527 56 150 0.0 2.0 0.00 0.00 0.00 78
20260502215521 55 0.0 0.0 0.00 0.00 0.00 78
20260502214523 56 0.0 0.0 0.00 0.00 0.00 77
20260502213531 56 0.0 0.0 0.00 0.00 0.00 76
20260502212519 56 0.0 0.0 0.00 0.00 0.00 76
20260502211535 55 0.0 0.0 0.00 0.00 0.00 77
20260502210523 56 0.0 0.0 0.00 0.00 0.00 76
20260502205537 57 0.0 0.0 0.00 0.00 0.00 74
20260502204523 57 0.0 0.0 0.00 0.00 0.00 73
20260502203526 58 0.0 0.0 0.00 0.00 0.00 70
20260502202523 59 0.0 0.0 0.00 0.00 0.00 69
20260502201531 59 0.0 0.0 0.00 0.00 0.00 70
20260502200523 60 0.0 0.0 0.00 0.00 0.00 69
20260502194528 61 0.0 0.0 0.00 0.00 0.00 68
20260502193526 62 0.0 0.0 0.00 0.00 0.00 65
20260502192523 62 0.0 0.0 0.00 0.00 0.00 64
20260502191531 63 0.0 0.0 0.00 0.00 0.00 64
20260502190524 63 0.0 0.0 0.00 0.00 0.00 64
20260502185531 65 0.0 0.0 0.00 0.00 0.00 63
20260502184527 66 172 0.0 1.0 0.00 0.00 0.00 60
20260502183531 67 0.0 1.0 0.00 0.00 0.00 53
20260502182522 69 0.0 0.0 0.00 0.00 0.00 52
20260502181531 70 0.0 0.0 0.00 0.00 0.00 51
20260502180526 72 0.0 0.0 0.00 0.00 0.00 50
20260502163531 77 177 1.0 2.0 0.00 0.00 0.00 30
20260502162526 78 129 0.0 2.0 0.00 0.00 0.00 30
20260502161532 78 145 1.0 4.0 0.00 0.00 0.00 29
20260502160520 79 110 1.0 3.0 0.00 0.00 0.00 29
20260502151527 80 184 1.0 4.0 0.00 0.00 0.00 27
20260502150523 80 171 2.0 7.0 0.00 0.00 0.00 26
20260502130523 82 114 3.0 7.0 0.00 0.00 0.00 29
20260502123526 81 143 3.0 7.0 0.00 0.00 0.00 30
20260502122523 80 139 3.0 7.0 0.00 0.00 0.00 31
20260502121523 81 154 2.0 7.0 0.00 0.00 0.00 31
20260502120525 80 145 2.0 5.0 0.00 0.00 0.00 31
20260502115531 81 133 1.0 4.0 0.00 0.00 0.00 31
20260502114524 80 140 3.0 6.0 0.00 0.00 0.00 32
20260502113532 79 145 3.0 7.0 0.00 0.00 0.00 33
20260502112527 78 131 3.0 7.0 0.00 0.00 0.00 33
20260502111531 78 146 3.0 7.0 0.00 0.00 0.00 34
20260502110523 78 149 3.0 8.0 0.00 0.00 0.00 35
20260502105525 78 142 2.0 4.0 0.00 0.00 0.00 36
20260502104523 77 149 3.0 6.0 0.00 0.00 0.00 35
20260502103534 77 157 3.0 8.0 0.00 0.00 0.00 35
20260502102526 76 158 2.0 6.0 0.00 0.00 0.00 38
20260502101531 76 144 2.0 5.0 0.00 0.00 0.00 37
20260502100520 76 139 2.0 5.0 0.00 0.00 0.00 37
20260502091519 73 155 2.0 5.0 0.00 0.00 0.00 41
20260502090523 72 143 3.0 7.0 0.00 0.00 0.00 41
20260502071531 59 164 2.0 4.0 0.00 0.00 0.00 66
20260502070523 58 173 1.0 4.0 0.00 0.00 0.00 67
20260502065524 57 137 1.0 4.0 0.00 0.00 0.00 70
20260502064524 56 176 1.0 4.0 0.00 0.00 0.00 73
20260502063525 55 156 1.0 4.0 0.00 0.00 0.00 74
20260502062538 54 145 1.0 3.0 0.00 0.00 0.00 76
20260502061532 53 148 2.0 4.0 0.00 0.00 0.00 77
20260502060524 51 147 1.0 2.0 0.00 0.00 0.00 82
20260502055534 50 138 0.0 2.0 0.00 0.00 0.00 85
20260502054524 49 150 1.0 2.0 0.00 0.00 0.00 86
20260502053526 48 143 1.0 4.0 0.00 0.00 0.00 88
20260502052524 46 159 2.0 4.0 0.00 0.00 0.00 92
20260502051531 43 164 0.0 2.0 0.00 0.00 0.00 94
20260502050526 41 0.0 0.0 0.00 0.00 0.00 93
20260502045531 41 0.0 0.0 0.00 0.00 0.00 92
20260502044524 41 358 1.0 2.0 0.00 0.00 0.00 92
20260502043534 42 0.0 0.0 0.00 0.00 0.00 92
20260502042527 42 0.0 0.0 0.00 0.00 0.00 93
20260502041535 42 0.0 0.0 0.00 0.00 0.00 93
20260502040527 41 0.0 0.0 0.00 0.00 0.00 92
20260502035525 41 0.0 0.0 0.00 0.00 0.00 92
20260502034526 41 0.0 0.0 0.00 0.00 0.00 92
20260502033531 40 0.0 0.0 0.00 0.00 0.00 92
20260502032523 40 128 0.0 1.0 0.00 0.00 0.00 91
20260502031531 40 0.0 0.0 0.00 0.00 0.00 91
20260502030523 41 0.0 0.0 0.00 0.00 0.00 91
20260502025531 41 0.0 0.0 0.00 0.00 0.00 90
20260502024524 41 0.0 0.0 0.00 0.00 0.00 90
20260502023532 42 0.0 0.0 0.00 0.00 0.00 89
20260502022526 42 0.0 0.0 0.00 0.00 0.00 89
20260502021527 43 0.0 0.0 0.00 0.00 0.00 88
20260502020526 43 0.0 0.0 0.00 0.00 0.00 88
20260502015533 43 0.0 0.0 0.00 0.00 0.00 88
20260502014523 44 0.0 0.0 0.00 0.00 0.00 88
20260502013528 44 0.0 0.0 0.00 0.00 0.00 87
20260502012523 44 128 0.0 1.0 0.00 0.00 0.00 87
20260502011535 44 0.0 0.0 0.00 0.00 0.00 88
20260502010526 44 0.0 0.0 0.00 0.00 0.00 88
20260502005531 44 0.0 0.0 0.00 0.00 0.00 88
20260502004526 44 0.0 0.0 0.00 0.00 0.00 87
20260502003527 44 351 0.0 2.0 0.00 0.00 0.00 87
20260502002523 45 0.0 0.0 0.00 0.00 0.00 85
20260502001531 46 0.0 0.0 0.00 0.00 0.00 86